Regional Weather Roundup
Issued by NWS Wakefield, VA

Home | Current Version | Previous Version | Graphics & Text | Print | Product List | Glossary Off
Versions: 1 2 3 4 5 6 7 8 9 10 11 12 13 14 15 16 17 18 19 20 21 22 23 24 25 26 27 28 29 30 31 32 33 34 35 36 37 38 39 40 41 42 43 44 45 46 47 48 49 50

000
ASUS41 KAKQ 060415
RWRAKQ

REGIONAL WEATHER ROUNDUP
NATIONAL WEATHER SERVICE WAKEFIELD VA
1200 AM EDT WED MAY 06 2015

Note: "fair" indicates few or no clouds below 12,000 feet with no
significant weather and/or obstructions to visibility. * = Denotes
station may not report precipitation (e.g., rain,snow,etc.),
thunder or fog.

VAZ042-051-052>054-056-060500-
NORTHERN VIRGINIA

CITY           SKY/WX    TMP DP  RH WIND       PRES   REMARKS
WASH NATIONAL  MOCLDY    66  61  84 SW6       30.24F
DULLES         MOCLDY    65  62  90 S8        30.25S
FORT BELVOIR   PTCLDY    61  61 100 CALM      30.24S FOG
QUANTICO       CLOUDY    65  61  87 W6        30.25F
FREDERICKSBRG* MOCLDY    67  67 100 CALM      30.24F FOG
STAFFORD*      CLOUDY    64  32  30 CALM      30.29F HAZE
WARRENTON      CLOUDY    64  64 100 CALM      30.25F
CULPEPER*      FOG       62  62  99 CALM      30.26F VSB 3/4
MANASSAS*      MOCLDY    64  64 100 S3        30.25S
LEESBURG*      MOCLDY    64  64 100 S8        30.25F
WINCHESTER     PTCLDY    63  55  77 CALM      30.24F
FRONT ROYAL*   MOCLDY    61  61 100 CALM      30.24S
LURAY*         FAIR      61  61 100 CALM      30.26S FOG
$$

VAZ048-049-060>072-079>083-060500-
CENTRAL AND SOUTH CENTRAL VIRGINIA

CITY           SKY/WX    TMP DP  RH WIND       PRES   REMARKS
RICHMOND       MOCLDY    67  64  90 S3        30.26F
CHESTERFIELD*  CLOUDY    70  54  56 SE5       30.28F
PETERSBURG*    PTCLDY    69  54  58 S6        30.28F
HANOVER        CLOUDY    66  65  96 CALM      30.26F
TAPPAHANNOCK*  CLOUDY    66  61  85 CALM      30.25F
QUINTON*       FAIR      68  63  83 CALM      30.26F
CHARLOTTSVILLE PTCLDY    66  62  87 CALM      30.26F
GORDONSVILLE*  FOG       62  61  99 CALM      30.26S VSB 1/4
ORANGE*        MOCLDY    64  63  94 CALM      30.28S FOG
LOUISA*        MOCLDY    63  61  94 CALM      30.25F FOG
BUMPASS*       FAIR      63  62  97 CALM      30.25F
FARMVILLE*     LGT RAIN  67  67 100 CALM      30.26F
CREWE*         MOCLDY    66  60  83 S3        30.27F
FORT PICKETT*  FAIR      66  56  69 S5        30.28S
CHASE CITY*    FAIR      70  58  65 S5        30.28R
CLARKSVILLE*   FAIR      64  54  68 S5        30.27R
SOUTH HILL*    CLEAR     63  51  65 S7        30.35R
LAWRENCEVILLE* FAIR      64  53  65 CALM      30.29R
EMPORIA*       FAIR      63  50  63 CALM      30.30S
$$

VAZ088>098-060500-
SOUTHEAST VIRGINIA

CITY           SKY/WX    TMP DP  RH WIND       PRES   REMARKS
NORFOLK        PTCLDY    67  49  52 S13       30.28F
VIRGINIA BEACH MOCLDY    69  51  52 S8        30.28F
NORFOLK NAVAL  MOCLDY    71  51  49 S9        30.30S
WEST POINT*    PTCLDY    70  60  71 S7        30.28F
SALUDA*        FAIR      65  60  83 S5        30.25F
NEWPORT NEWS   CLEAR     68  52  56 SW6       30.29S
LANGLEY AFB    CLEAR     67  52  58 SW12      30.27S
FORT EUSTIS    CLEAR     66  56  70 S5        30.26F
WILLIAMSBURG*  PTCLDY    72  55  56 S7        30.29F
HR EXEC AP*    FAIR      64  52  63 S8        30.31S
FRANKLIN*      PTCLDY    62  53  73 S6        30.29F
WAKEFIELD      CLEAR     67  53  61 S5        30.29R
$$

VAZ020-022-025-037-045-060500-
WEST CENTRAL AND SOUTHWEST VIRGINIA

CITY           SKY/WX    TMP DP  RH WIND       PRES   REMARKS
STAUNTON*      PTCLDY    61  58  88 CALM      30.28F
WAYNESBORO*    MOCLDY    66  59  78 CALM      30.28S
HOT SPRINGS VA CLOUDY    63  48  59 SE5       30.36R
LYNCHBURG      PTCLDY    63  59  87 CALM      30.28R
DANVILLE       MOCLDY    69  55  60 S3        30.27R
SOUTH BOSTON*  FAIR      66  55  67 CALM      30.27R
MARTINSVILLE   PTCLDY    59  59 100 CALM      30.30R
ROANOKE        CLOUDY    66  56  70 CALM      30.27S
BLACKSBURG     PTCLDY    60  54  80 CALM      30.33S
DUBLIN*        CLEAR     60  55  83 CALM      30.32R
MARION*        MOCLDY    62  53  72 CALM      30.34S
HILLSVILLE*    PTCLDY    64  53  68 S6        30.33S
RICHLANDS*     FAIR      68  51  54 S3        30.31S
WISE*          CLEAR     64  46  52 S6        30.32R
ABINGDON*      PTCLDY    63  55  73 CALM      30.29S
$$

MDZ021>025-VAZ099-100-060500-
SOUTHERN MARYLAND AND THE DELMARVA PENINSULA

CITY           SKY/WX    TMP DP  RH WIND       PRES   REMARKS
PATUXENT RIVER CLOUDY    65  61  87 SW8       30.22F
BAY BRIDGE APT   N/A    N/A N/A N/A W5        30.22F
LEONARDTOWN    CLOUDY    64  61  88 CALM      30.24F
DOVER          MOCLDY    69  65  90 SW5       30.18S
GEORGETOWN     MOCLDY    68  59  73 S8        30.22S
EASTON         CLOUDY    67  65  95 NW5       30.25F
CAMBRIDGE      CLOUDY    68  59  73 W3        30.21F
SALISBURY      MOCLDY    65  59  81 S5        30.22S
OCEAN CITY     PTCLDY    66  57  72 SW12      30.23F
WALLOPS ISLAND PTCLDY    68  53  58 SW12      30.24F
ACCOMACK*      CLEAR     66  54  63 SW9       30.26F
$$

NCZ012>017-030>032-060500-
NORTH CENTRAL AND EASTERN NORTH CAROLINA

CITY           SKY/WX    TMP DP  RH WIND       PRES   REMARKS
ROANOKE RAPIDS FAIR      61  50  67 CALM      30.29S
RALEIGH        MOCLDY    66  51  58 S5        30.30R
ELIZABETH CITY CLEAR     62  54  74 S3        30.31S
AHOSKIE*       PTCLDY    57  52  83 CALM      30.30S
EDENTON*       CLEAR     62  56  80 S3        30.30F
CURRITUCK*     CLEAR     64  52  66 CALM      30.31S
KILL DEVIL HLS CLEAR     64  59  82 CALM      30.30F
MANTEO         CLEAR     64  60  88 SW3       30.31F
CAPE HATTERAS  MOCLDY    65  57  75 S6        30.31S
TARBORO*       FAIR      58  54  86 CALM      30.30S
GOLDSBORO      PTCLDY    62  53  72 CALM      30.27S
WASHINGTON     PTCLDY    60  53  78 CALM      30.30F
GREENVILLE     CLEAR     63  54  72 CALM      30.30S
NEW BERN       PTCLDY    56  51  84 CALM      30.31F
WILMINGTON     MOCLDY    58  55  90 N3        30.28S
$$

VAZ048-060500-
ELSEWHERE

CITY           SKY/WX    TMP DP  RH WIND       PRES   REMARKS
HARRISBURG PA  MOCLDY    68  61  78 E3        30.22R
BALTIMORE      PTCLDY    66  61  84 SW6       30.21F
ANNAPOLIS      PTCLDY    66  60  81 SW3       30.21F
ANDREWS AFB    PTCLDY    63  63  99 SW8       30.23S
PHILADELPHIA   MOCLDY    73  60  63 SW10      30.21S
HENDERSON NC   PTCLDY    64  50  61 S6        30.29S
GREENSBORO     CLEAR     66  55  67 S6        30.27S
ROCKY MOUNT    PTCLDY    61  52  72 CALM      30.29S
$$

VAZ100-060500-
MARINE

STATION/POSITION TIME  TEMP    WIND        PRES    WAVE   SWELL
                       AIR SEA DIR/SP/G            HT/PER HT/PER
                 (UTC) (F)     (DEG/KT/KT) (MB)    (FT/S) (FT/S)
BRANDYWINE LGT   0300   71 55  260/  9/ 11 1022.9F
CAPE MAY NJ      0300   66 63  170/  3/  4 1022.8R
LEWES DE         0300   70 59  220/  5/  8 1023.0R
15NM E FENWICK I 0350   58 54              1022.9F   3/ 5
OCEAN-CITY-INLET 0300   65 52  220/ 16/ 18 1023.5F
WACHAPREAGUE VA  0300   66 69   CALM  /  2 1025.6R
THOMAS POINT MD  0400   66 61  240/ 11/ 11 1023.7F
GOOSES REEF MD   0400   63 60                N/A     1/ 2
COVE POINT MD    0300   66     250/  8/ 10 1024.4F
SOLOMONS ISLAND  0300      64                N/A
BISHOPS HEAD MD  0300   68 69  220/  8/  8 1023.4F
PINEY POINT MD   0300          270/  3/  4   N/A
CAMBRIDGE MD     0300   68 63  240/  5/  9 1023.1F
LEWISETTA VA     0300   70 68              1023.8F
RAPPAHANNOCK LGT 0300          220/ 14/ 16 1025.9R
YORK RVR RNG VA  0300   69     230/ 12/ 13 1024.9R
YORKTOWN VA      0300   70 62  260/  8/ 10 1025.4R
JAMESTOWN VA     0400   68 66  190/  6/  8 1024.4F
DOMINION TERM VA 0300   67     200/ 10/ 12 1025.6R
KIPTOPEKE VA     0300      68  200/  8/ 11   N/A
CHES BAY BRIDGE  0300   69 60  180/ 15/ 16 1025.1S
CAPE HENRY VA    0300   69     190/ 10/ 14 1024.4S
CHESAPEAKE LGHT  0300   66     210/ 18/ 18 1026.2R
WILLOUBY STN VA  0300   69     200/ 13/ 15 1026.0F
S CRANEY ISL VA  0300          190/  7/  9 1025.7R
CAPE HENRY BUOY  0328      62                N/A     2/12   2/12
1ST LANDING BUOY 0400      61                N/A     2/ 3
CAPE CHARLES BUO 0326      58                N/A     2/11   2/11
OFFSHORE WE BUOY 0311      54                N/A     2/ 4   2/11
64NM E OF VA BCH 0350   61 60  210/  8/ 10 1025.9F   2/11   2/11
DUCK PIER NC     0300   67 52  190/  9/ 11 1025.5R
44056 DUCK FRF   0311      54                N/A     2/11
OREGON INLET NC  0300   68 72  180/  7/ 10 1026.6R
HATTERAS NC      0300   69 69  160/  5/  7 1026.1R
DIAMOND SHLS NC  0350   71 75  170/ 10/ 12 1026.5R   3/11   3/11
CAPE LOOKOUT NC  0400   68      90/  3/  3 1025.7F
$$


USA.gov is the U.S. government's official web portal to all federal, state and local government web resources and services.